Regional Weather Roundup
Issued by NWS Midland/Odessa, TX

Skip options and go directly to product.
Home | Oldest Version | Next Version | Current Version | All | Text Only | Save Text | Print | Product List | Glossary On

Skip product version selection by date and time.   
957
ASUS44 KMAF 281101
RWRMAF
MIDLAND AREA WEATHER ROUNDUP
NATIONAL WEATHER SERVICE MIDLAND TX
600 AM CDT SAT MAY 28 2016

...IN SOUTHWEST TEXAS AND SOUTHEAST NEW MEXICO...

CITY           SKY/WX    TMP DP  RH WIND       PRES   REMARKS
ALPINE         CLEAR     50  22  33 W9        30.07R
ANDREWS        FAIR      61  26  26 W8        29.92R
ARTESIA        CLEAR     57  32  38 NW13      29.93R
BIG SPRING     CLEAR     57  35  43 SE10      29.91R
CARLSBAD       CLEAR     54  19  25 W8        29.91R
DRYDEN           N/A     64  55  72 N9        29.88R
FORT STOCKTON  PTCLDY    63  18  17 S9        29.92R
GUAD PASS      NOT AVBL
HOBBS          CLEAR     50  28  43 N8        29.94R
MARFA          CLEAR     44  17  33 N8        30.05R WCI  39
MIDLAND AIRPK  CLEAR     65  18  16 SW7       29.90R
MIDLAND INTL   CLEAR     58  20  22 SW3       29.91R
ODESSA         CLEAR     62  18  18 SW6       29.92R
PECOS          CLEAR     53  19  25 W3        29.89R
PRESIDIO       FAIR      66  15  13 N3        29.91S
SEMINOLE       CLEAR     59  34  40 CALM      29.93R
SNYDER           N/A     60  56  88 CALM      29.92R
WINK           CLEAR     53  23  31 SE6       29.90R
$$
...OTHER STATIONS IN TEXAS...

CITY           SKY/WX    TMP DP  RH WIND       PRES   REMARKS
ABILENE        CLEAR     66  63  90 S10       29.87R
AMARILLO       CLEAR     51  41  68 N5        29.97R
AUSTIN         MOCLDY    65  65 100 CALM      29.87R FOG
BROWNSVILLE    CLOUDY    81  78  91 E17G23    29.83R
CORPUS CHRISTI MOCLDY    81  77  88 SE17G29   29.82R
DALLAS FTW     CLOUDY    67  64  90 S10       29.85R
DEL RIO        CLOUDY    71  67  87 CALM      29.83R
EL PASO        CLEAR     61  17  18 S9        29.95R
HOUSTON INT    PTCLDY    64  64 100 CALM      29.87R
LUBBOCK        PTCLDY    55  44  66 NE10      29.92R
SAN ANGELO     CLEAR     65  63  93 SW7       29.88R
SAN ANTONIO    CLOUDY    71  67  87 E3        29.87R
WACO           CLOUDY    66  64  93 S9        29.87S
WICHITA FALLS  NOT AVBL
$$
...OTHER LOCATIONS IN NEW MEXICO...

CITY           SKY/WX    TMP DP  RH WIND       PRES   REMARKS
ALAMAGORDO     CLEAR     55  19  24 CALM      29.95S
ALBUQUERQUE    CLEAR     54  31  41 N6        30.03R
CANNON AFB     CLEAR     51  41  70 NE8       29.99R
CLOVIS         CLEAR     46  37  71 N10       29.99R
HOLLOMAN AFB   CLEAR     53  19  25 NE5       29.94R
ROSWELL        CLEAR     58  35  42 N10       29.95R
RUIDOSO          N/A     50  19  29 W6        30.11S
SANTA FE       CLEAR     41  30  65 N8        30.07R WCI  36
TRUTH OR CONSE CLEAR     60  24  25 NW12      29.98R
TUCUMCARI      CLEAR     47  40  76 CALM      29.98R
$$

USA.gov is the U.S. government's official web portal to all federal, state and local government web resources and services.